KLM80Y LIML-EHAM

Flight info

Callsign KLM80Y
Flight time N/A
Altitude 36000
Route ARLES DCT PUNSA DCT VADEM DCT GILIR DCT PENDU DCT IXILU DCT EPL DCT ROUSY DCT KOMOB DCT BUB Y28 HELEN
Aircraft B739/M-SDE2E3FGIJ1RWY/LB1

Departure

Time 2026-04-28 19:44
Airport Milano Linate Airport (LIML)

Arrival

Time N/A
Airport Amsterdam Airport Schiphol (EHAM)
Time Latitude Longitude Altitude Speed Heading
2026-04-28 19:02 45.45971 9.27905 362 ft 0 kts
2026-04-28 19:28 45.45967 9.27905 362 ft 4 kts
2026-04-28 19:28 45.45943 9.27903 362 ft 4 kts 10°
2026-04-28 19:28 45.45919 9.27890 362 ft 4 kts 43°
2026-04-28 19:28 45.45908 9.27863 367 ft 2 kts 90°
2026-04-28 19:29 45.45908 9.27861 362 ft 1 kts 90°
2026-04-28 19:33 45.45908 9.27873 338 ft 5 kts 90°
2026-04-28 19:34 45.45904 9.27954 364 ft 9 kts 109°
2026-04-28 19:34 45.45848 9.27984 362 ft 9 kts 178°
2026-04-28 19:34 45.45787 9.27984 362 ft 9 kts 181°
2026-04-28 19:34 45.45727 9.27983 362 ft 9 kts 179°
2026-04-28 19:35 45.45665 9.27983 364 ft 10 kts 181°
2026-04-28 19:35 45.45582 9.27981 365 ft 14 kts 180°
2026-04-28 19:35 45.45469 9.27979 361 ft 18 kts 181°
2026-04-28 19:35 45.45350 9.27954 360 ft 17 kts 205°
2026-04-28 19:36 45.45246 9.27884 359 ft 16 kts 198°
2026-04-28 19:36 45.45135 9.27876 360 ft 16 kts 176°
2026-04-28 19:36 45.45028 9.27886 361 ft 15 kts 174°
2026-04-28 19:36 45.44927 9.27911 360 ft 14 kts 163°
2026-04-28 19:37 45.44829 9.27943 357 ft 15 kts 174°
2026-04-28 19:37 45.44752 9.27952 358 ft 19 kts 175°
2026-04-28 19:37 45.44573 9.27971 362 ft 19 kts 175°
2026-04-28 19:37 45.44444 9.27986 359 ft 18 kts 175°
2026-04-28 19:38 45.44319 9.28001 353 ft 18 kts 175°
2026-04-28 19:38 45.44199 9.28013 360 ft 17 kts 178°
2026-04-28 19:38 45.44083 9.28023 353 ft 16 kts 174°
2026-04-28 19:38 45.43970 9.28039 353 ft 16 kts 175°
2026-04-28 19:39 45.43863 9.28048 352 ft 15 kts 176°
2026-04-28 19:39 45.43760 9.28057 350 ft 15 kts 176°
2026-04-28 19:39 45.43659 9.28070 357 ft 15 kts 175°
2026-04-28 19:39 45.43558 9.28081 348 ft 14 kts 176°
2026-04-28 19:40 45.43466 9.28060 349 ft 14 kts 222°
2026-04-28 19:40 45.43447 9.27981 353 ft 0 kts 263°
2026-04-28 19:43 45.43446 9.27966 348 ft 7 kts 263°
2026-04-28 19:43 45.43447 9.27872 350 ft 10 kts 289°
2026-04-28 19:43 45.43502 9.27818 351 ft 12 kts 352°
2026-04-28 19:43 45.43731 9.27793 350 ft 66 kts 356°
2026-04-28 19:44 45.44429 9.27717 359 ft 129 kts 355°
2026-04-28 19:44 45.45480 9.27614 362 ft 176 kts 355°
2026-04-28 19:44 45.46756 9.27349 772 ft 186 kts 344°
2026-04-28 19:44 45.47962 9.26708 1381 ft 188 kts 341°
2026-04-28 19:45 45.49185 9.26103 1873 ft 188 kts 342°
2026-04-28 19:45 45.50441 9.25502 2309 ft 192 kts 342°
2026-04-28 19:45 45.51707 9.24871 2752 ft 194 kts 341°
2026-04-28 19:45 45.52988 9.24214 3216 ft 196 kts 341°
2026-04-28 19:46 45.54288 9.23549 3587 ft 206 kts 341°
2026-04-28 19:46 45.55701 9.22836 3775 ft 228 kts 342°
2026-04-28 19:46 45.57281 9.22059 4025 ft 248 kts 342°
2026-04-28 19:46 45.58978 9.21216 4300 ft 269 kts 339°
2026-04-28 19:47 45.60645 9.19899 4988 ft 275 kts 322°
2026-04-28 19:47 45.61972 9.17931 5792 ft 275 kts 303°
2026-04-28 19:47 45.62833 9.15505 6577 ft 276 kts 287°
2026-04-28 19:47 45.63303 9.12851 7293 ft 277 kts 280°
2026-04-28 19:48 45.63653 9.10126 8020 ft 280 kts 279°
2026-04-28 19:48 45.63956 9.07356 8745 ft 282 kts 274°
2026-04-28 19:48 45.64095 9.04544 9477 ft 285 kts 273°
2026-04-28 19:48 45.64247 9.01717 9964 ft 288 kts 273°
2026-04-28 19:49 45.64425 8.98855 10011 ft 290 kts 279°
2026-04-28 19:49 45.65206 8.96215 10041 ft 291 kts 303°
2026-04-28 19:49 45.66386 8.93815 10097 ft 301 kts 304°
2026-04-28 19:49 45.67642 8.91322 10265 ft 322 kts 305°
2026-04-28 19:50 45.70421 8.85787 10704 ft 357 kts 304°
2026-04-28 19:50 45.71876 8.82865 11238 ft 363 kts 304°
2026-04-28 19:50 45.73327 8.79937 11920 ft 364 kts 304°
2026-04-28 19:51 45.74801 8.76951 12626 ft 365 kts 303°
2026-04-28 19:51 45.76270 8.73970 13319 ft 368 kts 303°
2026-04-28 19:51 45.77750 8.70959 14010 ft 371 kts 303°
2026-04-28 19:51 45.79237 8.67931 14659 ft 373 kts 303°
2026-04-28 19:52 45.80734 8.64879 15333 ft 375 kts 303°
2026-04-28 19:52 45.82237 8.61813 15957 ft 378 kts 303°
2026-04-28 19:52 45.83243 8.59759 16390 ft 379 kts 303°
2026-04-28 19:52 45.84724 8.56611 17030 ft 381 kts 300°
2026-04-28 19:53 45.86125 8.53375 17633 ft 384 kts 299°
2026-04-28 19:53 45.87510 8.50098 18282 ft 385 kts 299°
2026-04-28 19:53 45.88908 8.46796 18822 ft 388 kts 299°
2026-04-28 19:53 45.90322 8.43492 19356 ft 390 kts 300°
2026-04-28 19:54 45.91755 8.40157 19864 ft 394 kts 300°
2026-04-28 19:54 45.93209 8.36781 20343 ft 399 kts 300°
2026-04-28 19:54 45.94673 8.33390 20884 ft 401 kts 300°
2026-04-28 19:54 45.96149 8.29973 21429 ft 403 kts 300°
2026-04-28 19:55 45.97632 8.26538 21927 ft 405 kts 300°
2026-04-28 19:55 45.99122 8.23079 22355 ft 409 kts 299°
2026-04-28 19:55 46.00629 8.19576 22789 ft 414 kts 299°
2026-04-28 19:55 46.02145 8.16043 23261 ft 418 kts 299°
2026-04-28 19:56 46.03676 8.12473 23774 ft 420 kts 299°
2026-04-28 19:56 46.05209 8.08896 24235 ft 420 kts 299°
2026-04-28 19:56 46.06752 8.05290 24663 ft 423 kts 299°
2026-04-28 19:56 46.08294 8.01684 25106 ft 424 kts 299°
2026-04-28 19:57 46.09846 7.98057 25566 ft 425 kts 299°
2026-04-28 19:57 46.11397 7.94431 26060 ft 425 kts 299°
2026-04-28 19:57 46.12950 7.90798 26489 ft 426 kts 299°
2026-04-28 19:57 46.14505 7.87154 26853 ft 429 kts 298°
2026-04-28 19:58 46.16069 7.83484 27257 ft 430 kts 298°
2026-04-28 19:58 46.17642 7.79788 27675 ft 431 kts 298°
2026-04-28 19:58 46.19212 7.76093 28011 ft 433 kts 298°
2026-04-28 19:58 46.20789 7.72376 28367 ft 435 kts 298°
2026-04-28 19:59 46.22368 7.68648 28713 ft 437 kts 298°
2026-04-28 19:59 46.23961 7.64885 29042 ft 439 kts 298°
2026-04-28 19:59 46.25549 7.61130 29591 ft 436 kts 298°
2026-04-28 19:59 46.27120 7.57412 30230 ft 432 kts 298°
2026-04-28 20:00 46.28681 7.53711 30744 ft 429 kts 298°
2026-04-28 20:00 46.30225 7.50043 31150 ft 427 kts 298°
2026-04-28 20:00 46.31769 7.46369 31495 ft 427 kts 298°
2026-04-28 20:00 46.33307 7.42706 31931 ft 424 kts 298°
2026-04-28 20:01 46.34805 7.39133 32473 ft 419 kts 298°
2026-04-28 20:01 46.36309 7.35542 32929 ft 416 kts 298°
2026-04-28 20:01 46.37805 7.31966 33280 ft 415 kts 298°
2026-04-28 20:01 46.39304 7.28377 33582 ft 415 kts 298°
2026-04-28 20:02 46.40793 7.24804 33961 ft 414 kts 298°
2026-04-28 20:02 46.42277 7.21242 34306 ft 411 kts 298°
2026-04-28 20:02 46.43749 7.17704 34600 ft 411 kts 298°
2026-04-28 20:02 46.45228 7.14142 34762 ft 413 kts 298°
2026-04-28 20:03 46.46710 7.10569 34958 ft 414 kts 298°
2026-04-28 20:03 46.48195 7.06986 35202 ft 414 kts 298°
2026-04-28 20:03 46.49673 7.03414 35428 ft 415 kts 298°
2026-04-28 20:03 46.51160 6.99816 35629 ft 415 kts 298°
2026-04-28 20:04 46.52647 6.96215 35869 ft 415 kts 298°
2026-04-28 20:04 46.54130 6.92618 36076 ft 416 kts 298°
2026-04-28 20:04 46.55621 6.88996 36064 ft 419 kts 298°
2026-04-28 20:05 46.58597 6.81756 36078 ft 416 kts 298°
2026-04-28 20:05 46.61552 6.74547 36081 ft 413 kts 297°
2026-04-28 20:06 46.64480 6.67381 36088 ft 411 kts 297°
2026-04-28 20:06 46.67391 6.60241 36084 ft 411 kts 297°
2026-04-28 20:07 46.70338 6.53098 36082 ft 413 kts 302°
2026-04-28 20:07 46.74403 6.47134 36084 ft 423 kts 319°
2026-04-28 20:08 46.79617 6.42906 36101 ft 431 kts 329°
2026-04-28 20:08 46.85055 6.39132 36089 ft 434 kts 329°
2026-04-28 20:09 46.90505 6.35286 36080 ft 436 kts 329°
2026-04-28 20:09 46.95960 6.31369 36074 ft 437 kts 328°
2026-04-28 20:10 47.01411 6.27435 36081 ft 437 kts 328°
2026-04-28 20:10 47.06873 6.23489 36053 ft 437 kts 328°
2026-04-28 20:11 47.12300 6.19595 36056 ft 437 kts 328°
2026-04-28 20:11 47.17753 6.15683 36053 ft 436 kts 328°
2026-04-28 20:12 47.23203 6.11758 36059 ft 436 kts 328°